| time (UTC) | temp F | wind direction | speed MPH | gust MPH | rain 1hr in | rain 24hr in | rain mn in | humidity % | barometer mb |
| 20260505032658 | 45 | 316 | 0.0 | 0.0 | 0.00 | 0.04 | 0.04 | 64 | 1005.2 |
| 20260505032159 | 45 | 316 | 0.0 | 0.0 | 0.00 | 0.04 | 0.04 | 63 | 1005.2 |
| 20260505031658 | 45 | 316 | 0.0 | 0.0 | 0.00 | 0.04 | 0.04 | 63 | 1005.1 |
| 20260505031159 | 45 | 316 | 0.0 | 0.0 | 0.00 | 0.04 | 0.04 | 63 | 1005.2 |
| 20260505030658 | 45 | 316 | 0.0 | 0.0 | 0.00 | 0.04 | 0.04 | 63 | 1005.1 |
| 20260505030158 | 46 | 316 | 0.0 | 0.0 | 0.00 | 0.04 | 0.04 | 62 | 1005.1 |
| 20260505025658 | 46 | 316 | 0.0 | 0.0 | 0.00 | 0.04 | 0.04 | 62 | 1005.0 |
| 20260505025159 | 46 | 316 | 0.0 | 0.0 | 0.00 | 0.04 | 0.04 | 61 | 1005.0 |
| 20260505024658 | 46 | 316 | 0.0 | 0.0 | 0.00 | 0.04 | 0.04 | 61 | 1004.9 |
| 20260505024158 | 47 | 316 | 0.0 | 0.0 | 0.00 | 0.04 | 0.04 | 60 | 1004.9 |
| 20260505023658 | 47 | 316 | 0.0 | 0.0 | 0.00 | 0.04 | 0.04 | 60 | 1004.8 |
| 20260505023158 | 47 | 316 | 0.0 | 0.0 | 0.00 | 0.04 | 0.04 | 60 | 1004.8 |
| 20260505022802 | 47 | 316 | 0.0 | 0.0 | 0.00 | 0.04 | 0.04 | 59 | 1004.8 |
| 20260505022659 | 47 | 316 | 0.0 | 0.0 | 0.00 | 0.04 | 0.04 | 59 | 1004.8 |
| 20260505022201 | 47 | 316 | 0.0 | 0.0 | 0.00 | 0.04 | 0.04 | 59 | 1004.7 |
| 20260505021700 | 47 | 316 | 0.0 | 0.0 | 0.00 | 0.04 | 0.04 | 58 | 1004.6 |
| 20260505020700 | 48 | 316 | 0.0 | 0.0 | 0.00 | 0.04 | 0.04 | 57 | 1004.5 |
| 20260505020159 | 48 | 316 | 0.0 | 0.0 | 0.00 | 0.04 | 0.04 | 56 | 1004.5 |
| 20260505015700 | 48 | 316 | 0.0 | 7.0 | 0.00 | 0.04 | 0.04 | 56 | 1004.4 |
| 20260505015201 | 48 | 323 | 3.0 | 3.0 | 0.00 | 0.04 | 0.04 | 56 | 1004.4 |
| 20260505014700 | 48 | 291 | 0.0 | 9.0 | 0.00 | 0.04 | 0.04 | 56 | 1004.2 |
| 20260505014159 | 49 | 319 | 0.0 | 8.0 | 0.00 | 0.04 | 0.04 | 56 | 1004.4 |
| 20260505013159 | 49 | 286 | 3.0 | 6.0 | 0.00 | 0.04 | 0.04 | 56 | 1004.2 |
| 20260505012659 | 49 | 307 | 4.0 | 11.0 | 0.00 | 0.04 | 0.04 | 55 | 1004.1 |
| 20260505012200 | 49 | 338 | 0.0 | 7.0 | 0.00 | 0.04 | 0.04 | 56 | 1004.0 |
| 20260505011700 | 49 | 284 | 0.0 | 14.0 | 0.00 | 0.04 | 0.04 | 56 | 1004.0 |
| 20260505011200 | 50 | 329 | 4.0 | 14.0 | 0.00 | 0.04 | 0.04 | 55 | 1003.8 |
| 20260505010700 | 50 | 302 | 0.0 | 14.0 | 0.00 | 0.04 | 0.04 | 55 | 1003.8 |
| 20260505010200 | 50 | 344 | 7.0 | 13.0 | 0.00 | 0.04 | 0.04 | 55 | 1003.6 |
| 20260505005700 | 50 | 348 | 6.0 | 18.0 | 0.00 | 0.04 | 0.04 | 55 | 1003.5 |
| 20260505005201 | 50 | 347 | 9.0 | 16.0 | 0.00 | 0.04 | 0.04 | 55 | 1003.5 |
| 20260505004700 | 51 | 306 | 8.0 | 24.0 | 0.00 | 0.04 | 0.04 | 55 | 1003.3 |
| 20260505004200 | 51 | 324 | 5.0 | 14.0 | 0.00 | 0.04 | 0.04 | 55 | 1003.2 |
| 20260505003659 | 51 | 303 | 14.0 | 15.0 | 0.00 | 0.04 | 0.04 | 55 | 1003.1 |
| 20260505002700 | 52 | 336 | 6.0 | 14.0 | 0.00 | 0.04 | 0.04 | 53 | 1003.0 |
| 20260505002202 | 52 | 336 | 11.0 | 15.0 | 0.00 | 0.04 | 0.04 | 52 | 1002.9 |
| 20260505001701 | 52 | 281 | 9.0 | 21.0 | 0.00 | 0.04 | 0.04 | 52 | 1002.8 |
| 20260505001201 | 52 | 327 | 11.0 | 19.0 | 0.00 | 0.04 | 0.04 | 52 | 1002.8 |
| 20260505000700 | 53 | 322 | 5.0 | 13.0 | 0.00 | 0.04 | 0.04 | 52 | 1002.7 |
| 20260505000200 | 53 | 358 | 8.0 | 18.0 | 0.00 | 0.04 | 0.04 | 52 | 1002.7 |
| 20260504235701 | 52 | 285 | 15.0 | 21.0 | 0.00 | 0.04 | 0.04 | 52 | 1002.6 |
| 20260504235202 | 52 | 338 | 2.0 | 19.0 | 0.00 | 0.04 | 0.04 | 52 | 1002.6 |
| 20260504234701 | 53 | 317 | 3.0 | 17.0 | 0.00 | 0.04 | 0.04 | 52 | 1002.6 |
| 20260504234201 | 53 | 303 | 7.0 | 21.0 | 0.00 | 0.04 | 0.04 | 52 | 1002.5 |
| 20260504233710 | 53 | 306 | 8.0 | 15.0 | 0.00 | 0.04 | 0.04 | 51 | 1002.4 |
| 20260504233201 | 53 | 316 | 7.0 | 13.0 | 0.00 | 0.04 | 0.04 | 52 | 1002.4 |
| 20260504232701 | 53 | 334 | 7.0 | 15.0 | 0.00 | 0.04 | 0.04 | 51 | 1002.1 |
| 20260504232201 | 53 | 334 | 7.0 | 22.0 | 0.00 | 0.04 | 0.04 | 52 | 1002.1 |
| 20260504231701 | 53 | 338 | 7.0 | 19.0 | 0.00 | 0.04 | 0.04 | 52 | 1002.0 |
| 20260504231201 | 53 | 310 | 6.0 | 16.0 | 0.00 | 0.04 | 0.04 | 52 | 1001.9 |
| 20260504230701 | 53 | 315 | 14.0 | 19.0 | 0.00 | 0.04 | 0.04 | 52 | 1001.9 |
| 20260504230201 | 53 | 322 | 11.0 | 25.0 | 0.00 | 0.04 | 0.04 | 51 | 1001.8 |
| 20260504225701 | 54 | 270 | 6.0 | 15.0 | 0.00 | 0.04 | 0.04 | 51 | 1001.5 |
| 20260504225202 | 54 | 264 | 0.0 | 12.0 | 0.00 | 0.04 | 0.04 | 52 | 1001.5 |
| 20260504224701 | 54 | 343 | 8.0 | 10.0 | 0.00 | 0.04 | 0.04 | 52 | 1001.4 |
| 20260504224205 | 54 | 277 | 5.0 | 15.0 | 0.00 | 0.04 | 0.04 | 51 | 1001.3 |
| 20260504222700 | 55 | 313 | 8.0 | 15.0 | 0.00 | 0.04 | 0.04 | 51 | 1000.9 |
| 20260504222203 | 55 | 292 | 9.0 | 18.0 | 0.00 | 0.04 | 0.04 | 51 | 1000.8 |
| 20260504221703 | 55 | 327 | 15.0 | 20.0 | 0.00 | 0.04 | 0.04 | 52 | 1000.6 |
| 20260504220711 | 56 | 296 | 8.0 | 13.0 | 0.00 | 0.04 | 0.04 | 50 | 1000.4 |
| 20260504220202 | 56 | 347 | 7.0 | 21.0 | 0.00 | 0.04 | 0.04 | 51 | 1000.4 |
| 20260504215203 | 56 | 299 | 11.0 | 19.0 | 0.00 | 0.04 | 0.04 | 50 | 1000.2 |
| 20260504214702 | 55 | 299 | 7.0 | 20.0 | 0.00 | 0.04 | 0.04 | 50 | 1000.1 |
| 20260504214202 | 55 | 310 | 9.0 | 27.0 | 0.00 | 0.04 | 0.04 | 51 | 1000.0 |
| 20260504213701 | 56 | 322 | 14.0 | 17.0 | 0.00 | 0.04 | 0.04 | 52 | 999.9 |
| 20260504213201 | 56 | 299 | 5.0 | 19.0 | 0.00 | 0.04 | 0.04 | 50 | 999.8 |
| 20260504212702 | 56 | 282 | 9.0 | 15.0 | 0.00 | 0.04 | 0.04 | 51 | 999.9 |
| 20260504212203 | 56 | 322 | 10.0 | 17.0 | 0.00 | 0.04 | 0.04 | 50 | 999.8 |
| 20260504211702 | 57 | 307 | 11.0 | 16.0 | 0.00 | 0.04 | 0.04 | 50 | 999.7 |
| 20260504210702 | 59 | 309 | 5.0 | 22.0 | 0.00 | 0.04 | 0.04 | 48 | 999.6 |
| 20260504210202 | 59 | 316 | 3.0 | 16.0 | 0.00 | 0.04 | 0.04 | 48 | 999.5 |
| 20260504205203 | 59 | 277 | 11.0 | 19.0 | 0.00 | 0.04 | 0.04 | 48 | 999.5 |
| 20260504204712 | 58 | 313 | 5.0 | 19.0 | 0.00 | 0.04 | 0.04 | 50 | 999.5 |
| 20260504204205 | 58 | 326 | 7.0 | 13.0 | 0.00 | 0.04 | 0.04 | 49 | 999.5 |
| 20260504203704 | 59 | 288 | 10.0 | 22.0 | 0.00 | 0.04 | 0.04 | 47 | 999.4 |
| 20260504203204 | 59 | 243 | 7.0 | 12.0 | 0.00 | 0.04 | 0.04 | 48 | 999.3 |
| 20260504202711 | 58 | 253 | 5.0 | 21.0 | 0.00 | 0.04 | 0.04 | 49 | 999.4 |
| 20260504201704 | 58 | 322 | 8.0 | 14.0 | 0.00 | 0.04 | 0.04 | 50 | 999.2 |
| 20260504201203 | 58 | 307 | 7.0 | 19.0 | 0.00 | 0.04 | 0.04 | 49 | 999.2 |
| 20260504200709 | 59 | 312 | 8.0 | 19.0 | 0.00 | 0.04 | 0.04 | 50 | 998.9 |
| 20260504194704 | 59 | 341 | 4.0 | 14.0 | 0.00 | 0.04 | 0.04 | 50 | 999.0 |
| 20260504194204 | 58 | 281 | 3.0 | 15.0 | 0.00 | 0.04 | 0.04 | 50 | 999.0 |
| 20260504193703 | 58 | 316 | 7.0 | 23.0 | 0.00 | 0.04 | 0.04 | 51 | 998.9 |
| 20260504192703 | 60 | 293 | 0.0 | 13.0 | 0.00 | 0.04 | 0.04 | 50 | 998.8 |
| 20260504191703 | 59 | 286 | 7.0 | 15.0 | 0.00 | 0.04 | 0.04 | 50 | 998.6 |
| 20260504190704 | 61 | 272 | 0.0 | 14.0 | 0.00 | 0.04 | 0.04 | 49 | 998.6 |
| 20260504190204 | 60 | 277 | 0.0 | 10.0 | 0.00 | 0.04 | 0.04 | 52 | 998.4 |
| 20260504185809 | 59 | 289 | 0.0 | 13.0 | 0.00 | 0.04 | 0.04 | 52 | 998.5 |
| 20260504185716 | 59 | 289 | 0.0 | 13.0 | 0.00 | 0.04 | 0.04 | 52 | 998.5 |
| 20260504184704 | 59 | 282 | 0.0 | 15.0 | 0.00 | 0.04 | 0.04 | 51 | 998.3 |
| 20260504184204 | 59 | 250 | 7.0 | 20.0 | 0.00 | 0.04 | 0.04 | 51 | 998.3 |
| 20260504183703 | 59 | 295 | 9.0 | 13.0 | 0.00 | 0.04 | 0.04 | 50 | 998.2 |
| 20260504183203 | 58 | 237 | 5.0 | 14.0 | 0.00 | 0.04 | 0.04 | 50 | 998.1 |
| 20260504182712 | 58 | 254 | 0.0 | 20.0 | 0.00 | 0.04 | 0.04 | 50 | 998.1 |
| 20260504181704 | 58 | 255 | 7.0 | 14.0 | 0.00 | 0.04 | 0.04 | 49 | 998.1 |
| 20260504181203 | 58 | 324 | 6.0 | 14.0 | 0.00 | 0.04 | 0.04 | 48 | 998.1 |
| 20260504180703 | 59 | 327 | 17.0 | 24.0 | 0.00 | 0.04 | 0.04 | 46 | 997.9 |
| 20260504180204 | 60 | 288 | 7.0 | 19.0 | 0.00 | 0.04 | 0.04 | 47 | 997.8 |
| 20260504175708 | 60 | 327 | 1.0 | 12.0 | 0.00 | 0.04 | 0.04 | 47 | 997.7 |
| 20260504174710 | 60 | 303 | 8.0 | 18.0 | 0.00 | 0.04 | 0.04 | 46 | 997.4 |
| 20260504174203 | 61 | 288 | 14.0 | 14.0 | 0.00 | 0.04 | 0.04 | 46 | 997.5 |
| 20260504173703 | 61 | 298 | 8.0 | 22.0 | 0.00 | 0.04 | 0.04 | 47 | 997.4 |
| 20260504173204 | 60 | 264 | 6.0 | 15.0 | 0.00 | 0.04 | 0.04 | 50 | 997.4 |
| 20260504172709 | 60 | 295 | 5.0 | 15.0 | 0.00 | 0.04 | 0.04 | 50 | 997.5 |
| 20260504171711 | 61 | 331 | 7.0 | 23.0 | 0.00 | 0.04 | 0.04 | 47 | 997.4 |
| 20260504171205 | 61 | 289 | 10.0 | 16.0 | 0.00 | 0.04 | 0.04 | 49 | 997.3 |
| 20260504160204 | 60 | 302 | 0.0 | 17.0 | 0.00 | 0.04 | 0.04 | 53 | 997.1 |
| 20260504150703 | 59 | 299 | 2.0 | 17.0 | 0.02 | 0.04 | 0.04 | 53 | 996.9 |
| 20260504150204 | 59 | 320 | 5.0 | 20.0 | 0.02 | 0.04 | 0.04 | 53 | 997.0 |
| 20260504150104 | 59 | 302 | 8.0 | 20.0 | 0.00 | 0.02 | 0.02 | 53 | 997.0 |
| 20260504141103 | 59 | 296 | 18.0 | 18.0 | 0.00 | 0.02 | 0.02 | 53 | 996.6 |
| 20260504140603 | 59 | 267 | 0.0 | 6.0 | 0.00 | 0.02 | 0.02 | 55 | 996.5 |
| 20260504140105 | 59 | 310 | 6.0 | 12.0 | 0.00 | 0.02 | 0.02 | 54 | 996.4 |
| 20260504130604 | 59 | 241 | 0.0 | 6.0 | 0.00 | 0.02 | 0.02 | 59 | 995.6 |
| 20260504110103 | 57 | 220 | 11.0 | 12.0 | 0.02 | 0.02 | 0.02 | 56 | 994.2 |
| 20260504100603 | 57 | 215 | 4.0 | 11.0 | 0.00 | 0.00 | 0.00 | 55 | 994.5 |
| 20260504090104 | 56 | 240 | 3.0 | 7.0 | 0.00 | 0.00 | 0.00 | 58 | 995.3 |
| 20260504081602 | 55 | 180 | 0.0 | 0.0 | 0.00 | 0.00 | 0.00 | 57 | 996.4 |
| 20260504081107 | 55 | 236 | 0.0 | 3.0 | 0.00 | 0.00 | 0.00 | 57 | 996.6 |
| 20260504080602 | 55 | 216 | 0.0 | 3.0 | 0.00 | 0.00 | 0.00 | 57 | 996.6 |
| 20260504080134 | 56 | 180 | 0.0 | 3.0 | 0.00 | 0.00 | 0.00 | 56 | 996.7 |
| 20260504050602 | 55 | 261 | 0.0 | 2.0 | 0.00 | 0.00 | 0.00 | 58 | 999.8 |
| 20260504050104 | 55 | 261 | 0.0 | 0.0 | 0.00 | 0.00 | 0.00 | 58 | 1000.0 |
| 20260504045602 | 55 | 261 | 0.0 | 0.0 | 0.00 | 0.00 | 0.00 | 57 | 1000.0 |
| 20260504045103 | 55 | 261 | 0.0 | 0.0 | 0.00 | 0.00 | 0.00 | 57 | 1000.0 |
| 20260504044608 | 56 | 261 | 0.0 | 0.0 | 0.00 | 0.00 | 0.00 | 57 | 1000.1 |
| 20260504044102 | 56 | 261 | 0.0 | 0.0 | 0.00 | 0.00 | 0.00 | 57 | 1000.2 |
| 20260504043605 | 56 | 261 | 0.0 | 0.0 | 0.00 | 0.00 | 0.00 | 57 | 1000.3 |
| 20260504043102 | 56 | 261 | 0.0 | 0.0 | 0.00 | 0.00 | 0.00 | 57 | 1000.4 |
| 20260504042603 | 56 | 261 | 0.0 | 0.0 | 0.00 | 0.00 | 0.00 | 57 | 1000.5 |
| 20260504042103 | 56 | 261 | 0.0 | 0.0 | 0.00 | 0.00 | 0.00 | 57 | 1000.6 |
| 20260504041602 | 56 | 261 | 0.0 | 0.0 | 0.00 | 0.00 | 0.00 | 57 | 1000.6 |
| 20260504040602 | 56 | 261 | 0.0 | 0.0 | 0.00 | 0.00 | 0.00 | 56 | 1000.9 |
| 20260504040145 | 57 | 261 | 0.0 | 0.0 | 0.00 | 0.00 | 0.00 | 55 | 1001.0 |
| 20260504040103 | 57 | 261 | 0.0 | 0.0 | 0.00 | 0.00 | 0.00 | 55 | 1001.0 |
| 20260504035602 | 57 | 261 | 0.0 | 0.0 | 0.00 | 0.00 | 0.00 | 55 | 1001.1 |
| 20260504035102 | 57 | 261 | 0.0 | 0.0 | 0.00 | 0.00 | 0.00 | 55 | 1001.3 |
| 20260504034602 | 57 | 261 | 0.0 | 0.0 | 0.00 | 0.00 | 0.00 | 54 | 1001.3 |
| 20260504034103 | 57 | 261 | 0.0 | 0.0 | 0.00 | 0.00 | 0.00 | 54 | 1001.4 |
| 20260504033103 | 57 | 261 | 0.0 | 0.0 | 0.00 | 0.00 | 0.00 | 55 | 1001.5 |